This is the latest recevied weather packets stored in our database for station/object W9KHP-1. If no packets are shown the sender has not sent any weather packets the latest 10 day(s).
| Time | Temp. | Humidity | Pressure | Rain* | Wind** | Luminosity | Snow |
|---|---|---|---|---|---|---|---|
| 1777646216 | 13.33° C | 59% | 1018.2 hPa | 0 mm | - | 222 W/m² | - |
| 1777645915 | 13.33° C | 58% | 1018.1 hPa | 0 mm | - | 79 W/m² | - |
| 1777645611 | 13.33° C | 58% | 1018.2 hPa | 0 mm | - | 137 W/m² | - |
| 1777645307 | 13.33° C | 57% | 1018.1 hPa | 0 mm | - | 102 W/m² | - |
| 1777645003 | 13.33° C | 60% | 1017.9 hPa | 0 mm | - | 71 W/m² | - |
| 1777644701 | 13.33° C | 58% | 1018 hPa | 0 mm | - | 183 W/m² | - |
| 1777644397 | 12.78° C | 58% | 1018 hPa | 0 mm | - | 92 W/m² | - |
| 1777644094 | 13.33° C | 61% | 1017.9 hPa | 0 mm | - | 105 W/m² | - |
| 1777643791 | 13.33° C | 64% | 1018 hPa | 0 mm | - | 258 W/m² | - |
| 1777643488 | 13.33° C | 64% | 1018 hPa | 0 mm | - | 130 W/m² | - |
| 1777643184 | 13.33° C | 64% | 1017.8 hPa | 0 mm | - | 176 W/m² | - |
| 1777642881 | 12.78° C | 62% | 1018 hPa | 0 mm | - | 259 W/m² | - |
| 1777642578 | 12.78° C | 66% | 1018 hPa | 0 mm | - | 145 W/m² | - |
| 1777642274 | 12.78° C | 73% | 1017.9 hPa | 0 mm | - | 145 W/m² | - |
| 1777641971 | 12.78° C | 75% | 1018 hPa | 0 mm | - | 81 W/m² | - |
| 1777641666 | 12.78° C | 72% | 1017.9 hPa | 0 mm | - | 86 W/m² | - |
| 1777641362 | 12.22° C | 74% | 1017.6 hPa | 0 mm | - | 139 W/m² | - |
| 1777641057 | 12.22° C | 73% | 1018 hPa | 0 mm | - | 53 W/m² | - |
| 1777640753 | 12.22° C | 74% | 1017.9 hPa | 0 mm | - | 60 W/m² | - |
| 1777640450 | 12.22° C | 75% | 1017.8 hPa | 0 mm | - | 115 W/m² | - |
| 1777640147 | 12.22° C | 76% | 1017.9 hPa | 0 mm | - | 91 W/m² | - |
| 1777639844 | 12.22° C | 79% | 1017.9 hPa | 0 mm | - | 75 W/m² | - |
| 1777639541 | 12.22° C | 77% | 1017.8 hPa | 0 mm | - | 82 W/m² | - |
| 1777639238 | 11.67° C | 80% | 1017.7 hPa | 0 mm | - | 86 W/m² | - |
| 1777638935 | 11.67° C | 80% | 1017.7 hPa | 0 mm | - | 47 W/m² | - |
* Rain latest hour (hover to see other rain measurements)
** Current wind speed in m/s (hover to see current wind gust speed)